Regional Weather Roundup
Issued by NWS Newport/Morehead, NC

Current Version | Previous Version | Text Only | Print | Product List | Glossary On
Versions: 1 2 3 4 5 6 7 8 9 10 11 12 13 14 15 16 17 18 19 20 21 22 23 24 25 26 27 28 29 30 31 32 33 34 35 36 37 38 39 40 41 42 43 44 45 46 47 48 49 50
000 ASUS42 KMHX 270410 RWRMHX WEATHER ROUNDUP FOR EASTERN NORTH CAROLINA NATIONAL WEATHER SERVICE NEWPORT/MOREHEAD CITY NC 1100 PM EST WED NOV 26 2014 NOTE: "FAIR" INDICATES FEW OR NO CLOUDS BELOW 12,000 FEET WITH NO SIGNIFICANT WEATHER AND/OR OBSTRUCTIONS TO VISIBILITY NCZ015>017-031-032-045>047-102-103-270500- NORTH COAST CITY SKY/WX TMP DP RH WIND PRES REMARKS EDENTON CLOUDY 41 38 87 NW6 30.07S ELIZABETH CITY CLOUDY 43 37 79 W12 30.05S KITTY HAWK CLOUDY 42 39 89 NW10G17 30.04R MANTEO CLOUDY 42 38 87 NW10G17 30.05R $$ NCZ045>047-081-094-103-104-270500- CENTRAL COAST CITY SKY/WX TMP DP RH WIND PRES REMARKS FRISCO CLOUDY 43 40 89 NW14G20 30.06R SWANQUARTER N/A 43 N/A N/A W9G15 30.03S $$ NCZ095-097-098-100-101-270500- SOUTHERN COAST CITY SKY/WX TMP DP RH WIND PRES REMARKS BEAUFORT CLOUDY 45 40 82 NW13 30.10R CEDAR ISLAND N/A 45 N/A N/A W13 30.12R JACKSONVILLE CLEAR 42 38 85 NW5 30.10R PINEY ISLAND CLOUDY 46 38 73 NW12 30.09R WILMINGTON CLEAR 42 41 96 CALM 30.12R $$ NCZ011>013-027>030-043-044-078>080-089-090>093-098-270500- COASTAL PLAIN CITY SKY/WX TMP DP RH WIND PRES REMARKS AHOSKIE CLEAR 36 35 95 CALM 30.07F CLINTON CLEAR 38 38 100 CALM 30.10S ELIZABETHTOWN CLEAR 38 38 100 CALM 30.10R GOLDSBORO CLEAR 38 38 98 CALM 30.08R GREENVILLE CLEAR 37 36 93 CALM 30.10S HAVELOCK CLOUDY 44 39 82 NW9 30.10R KENANSVILLE CLEAR 38 38 100 CALM 30.12R KINSTON N/A 36 36 98 CALM 30.09S FOG NEW BERN CLOUDY 45 38 76 N7 30.10R RICHLANDS CLEAR 37 34 87 CALM 30.11R ROCKY MOUNT CLEAR 35 33 92 CALM 30.07S WASHINGTON CLOUDY 41 37 84 NW3 30.09R WHITEVILLE MOCLDY 41 40 97 CALM 30.11R $$ AMZ130-135-150-152-154-156-158-170-250-252-270-ANZ085-086-088-633-658-670-270500- MARINE OBSERVATIONS STATION/POSITION TIME TEMP WIND PRES WAVE SWELL AIR SEA DIR/SP/G HT/PER HT/PER (UTC) (F) (DEG/KT/KT) (MB) (FT/S) (FT/S) CHESAPEAKE LIGHT 0300 44 320/ 22/ 25 1016.0 64 E VA BEACH 0400 49 62 320/ 21/ 25 1014.0 11/ 9 3/15 DUCK 0400 42 56 300/ 15/ 18 1016.4 2 E DUCK 0400 57 N/A 6/ 9 2/11 10 NE DUCK 0400 59 N/A 8/ 9 2/11 OREGON INLET 0400 43 57 300/ 11/ 16 1017.1 13E OREGON INLT 0400 63 N/A 9/ 8 2/11 HATTERAS CG 0400 45 61 310/ 18/ 20 1018.2 DIAMOND BUOY 0400 48 290/ 17/ 23 1017.4 10/ 8 17 S OCRACOKE NOT AVBL CAPE LOOKOUT 0300 46 310/ 12/ 16 1018.3 BEAUFORT LAB 0400 45 58 320/ 6/ 11 1018.0 30 SE NEW RIVER 0300 50 67 320/ 16/ 19 1019.1 5 SE WRIGHTSVLE 0300 45 59 330/ 12/ 14 1018.3 225 S CAPE HAT 0251 67 73 300/ 19/ 21 1018.2 11/ 8 5/14 41 SE CHARLESTON 0400 61 74 270/ 17/ 21 1019.1 5/ 5 3/ 9 $$

USA.gov is the U.S. government's official web portal to all federal, state and local government web resources and services.